Theta_e
345 346 350 350 348 345 340 334 332 333 334 334 335 335 335 334 334 336 339 341 339 339 340 338 335 335 337 338 339 339 340 340 343 346 347 345 327 330 343 344 338 332 337
343 345 347 347 349 347 345 341 340 337 336 336 335 334 333 332 333 335 337 336 335 335 335 334 333 332 332 332 331 330 330 331 333 335 337 343 346 329 341 343 342 339 332
340 344 342 343 345 346 345 343 340 338 335 333 332 332 333 335 337 337 336 337 339 339 339 338 336 335 334 333 333 332 330 330 330 331 332 331 331 345 334 340 342 341 335
338 337 334 332 333 334 334 332 331 331 333 336 338 339 339 338 337 336 336 336 336 338 341 342 342 340 338 337 335 334 332 330 331 333 332 331 335 336 340 341 340 339 334
336 336 334 333 333 332 333 335 338 340 340 340 338 336 334 332 330 329 329 330 330 331 331 332 333 334 335 335 335 333 331 331 331 336 333 332 335 336 336 339 339 334 332
336 335 335 335 334 335 336 337 336 335 336 336 332 333 334 334 335 337 339 339 339 339 340 340 340 339 338 338 337 336 335 335 335 336 336 334 334 335 335 342 343 337 334
339 339 338 337 336 336 336 336 334 332 336 340 341 342 342 341 342 342 341 341 339 336 334 334 334 335 335 335 337 340 341 339 340 340 338 338 338 338 336 337 345 341 340
340 339 339 339 338 336 335 332 334 342 342 340 342 343 343 343 343 343 343 342 340 339 339 338 337 337 338 336 335 336 338 340 340 340 340 339 339 341 339 339 347 343 341
339 339 341 338 335 334 336 339 342 343 342 339 341 341 341 341 342 342 342 342 342 339 339 340 340 339 339 340 340 340 340 340 340 341 340 340 340 343 345 346 344 341 339
340 340 338 337 336 339 342 343 342 340 337 336 336 338 339 339 339 338 339 339 337 336 338 337 338 336 337 340 339 339 339 341 341 340 341 342 340 340 339 340 339 338 337
342 341 339 337 339 342 343 343 342 338 336 335 333 333 334 334 334 335 333 333 333 331 332 333 332 333 332 333 334 330 333 336 340 341 340 340 340 339 338 338 338 337 336
346 344 345 341 342 344 345 344 340 335 334 331 329 328 328 328 327 328 328 328 327 326 326 327 327 326 328 329 329 329 328 325 333 339 340 340 340 340 337 334 333 333 333
341 339 341 344 344 345 342 342 335 333 331 330 327 322 318 317 318 323 323 324 322 321 322 323 323 323 322 322 323 324 324 323 322 333 336 338 337 338 336 334 332 330 331
340 338 337 342 339 336 334 333 331 330 328 324 320 317 316 314 314 314 319 320 319 319 319 320 320 320 320 320 320 320 320 320 320 321 325 336 335 336 336 333 332 332 332
338 337 336 335 335 334 332 329 326 325 321 319 317 316 315 314 313 314 316 317 317 317 318 320 319 318 318 318 318 318 319 319 319 320 321 322 332 334 335 333 334 334 332
335 335 333 332 329 323 321 323 321 320 318 317 316 315 315 314 314 315 315 315 316 317 318 318 316 316 316 316 318 319 319 319 318 319 319 319 320 327 332 335 333 334 333
331 330 329 326 324 323 322 320 319 318 318 316 315 315 314 314 313 312 312 313 314 316 316 316 315 315 316 316 317 316 317 318 320 328 326 325 321 321 328 334 334 331 333
328 325 320 320 319 319 323 323 320 318 317 316 315 315 314 313 311 310 310 311 312 315 316 315 315 316 315 314 315 319 318 323 328 329 330 331 332 332 333 333 332 330 329
323 320 319 318 317 317 317 317 317 317 316 316 315 313 313 312 310 310 312 314 315 316 315 314 315 315 314 314 315 321 320 320 322 325 325 325 327 328 328 328 328 328 329
320 320 318 318 317 315 316 317 317 316 314 313 312 312 310 310 309 311 313 314 315 313 313 313 314 314 312 314 316 315 314 312 316 322 325 325 324 323 323 323 324 325 325
319 318 317 317 316 314 316 315 315 313 312 312 311 310 309 309 310 312 314 314 313 310 310 310 312 312 311 312 316 316 315 312 307 309 319 321 320 319 321 321 322 320 320
317 316 316 316 315 314 315 315 313 311 310 309 308 309 309 309 311 312 313 313 311 311 311 306 309 310 310 309 312 314 315 312 312 306 308 317 320 321 321 320 319 317 316
317 316 316 315 314 313 313 313 311 309 307 307 308 308 309 311 311 310 311 311 309 311 308 306 307 308 307 307 308 312 314 313 310 309 306 309 319 319 318 318 318 315 313
318 317 316 315 314 312 311 310 309 307 307 307 308 309 310 310 309 308 309 307 309 310 308 306 306 306 305 306 306 307 307 306 307 305 306 306 314 316 314 315 315 313 310
318 318 316 315 314 311 309 308 307 308 308 308 308 310 309 309 309 308 308 307 308 308 308 307 305 306 306 306 305 306 306 306 305 302 302 302 306 310 311 312 311 309 307
318 316 316 315 313 311 309 308 308 308 308 308 308 308 309 308 309 307 308 307 306 306 306 307 306 306 305 306 305 304 304 304 303 302 299 300 301 305 307 305 307 304 302
Wind_Speed
7 8 10 13 12 12 13 14 13 12 11 11 10 10 9 10 11 11 11 10 9 9 8 7 6 6 5 5 5 5 5 5 4 4 4 5 4 6 9 6 6 7 8
14 10 11 13 15 13 13 13 12 11 10 8 8 7 8 8 9 9 9 8 8 8 7 6 6 5 5 5 4 3 3 3 2 2 1 1 1 1 7 6 8 9 8
15 13 12 13 15 15 14 12 12 10 9 8 8 7 7 8 8 7 7 7 6 6 5 5 4 4 4 4 4 5 4 4 4 4 3 2 2 4 6 8 8 11 10
15 15 14 12 12 14 13 13 12 11 10 9 8 7 6 5 5 5 5 5 5 4 4 4 5 5 6 5 5 5 6 6 5 5 5 4 2 5 7 10 11 10 10
17 15 14 13 12 12 12 12 11 10 8 7 6 5 4 4 5 5 6 6 6 6 6 7 7 7 8 8 8 8 7 7 7 7 6 5 5 5 6 14 13 11 11
18 15 14 12 12 12 12 11 10 9 9 7 7 7 6 5 6 6 8 8 8 9 9 8 8 9 10 10 9 9 9 8 7 7 7 7 5 7 8 12 17 14 11
18 15 13 13 12 12 12 12 11 11 11 10 8 6 5 4 6 6 7 9 10 11 9 8 8 8 9 9 9 9 10 9 8 8 9 8 5 5 8 14 17 15 11
18 15 14 13 13 13 12 12 12 13 11 10 10 9 6 4 3 5 6 7 9 12 11 11 10 10 10 9 9 9 8 9 9 9 9 6 5 6 2 12 17 15 13
17 15 14 13 13 12 13 13 12 10 7 9 8 7 7 8 6 3 5 6 8 10 10 9 9 9 10 9 10 10 11 9 8 9 8 4 2 2 3 11 14 13 13
14 14 14 13 12 12 13 12 11 8 7 8 7 6 5 5 4 6 7 6 7 8 8 8 8 9 11 8 8 9 10 8 10 10 7 7 5 3 1 5 9 11 13
14 11 11 12 12 12 12 10 8 7 6 7 8 8 7 7 6 6 7 7 6 7 7 8 9 9 9 8 8 10 9 9 10 11 10 8 9 10 10 9 12 11 11
14 10 10 13 13 11 10 10 8 6 6 9 10 9 9 10 10 8 8 8 8 10 10 10 11 11 10 10 10 10 10 10 9 9 11 12 11 12 12 8 7 7 7
18 15 13 14 15 12 11 12 9 6 5 7 10 12 14 14 14 12 12 11 13 14 14 14 14 13 12 13 12 12 12 10 10 9 9 12 12 13 12 9 7 5 4
19 16 17 19 18 15 12 10 7 5 6 9 12 14 17 17 17 16 16 15 16 18 17 15 14 14 14 14 14 14 13 11 8 7 5 7 12 13 11 10 9 4 3
19 15 14 14 14 11 8 7 6 6 7 10 12 15 18 20 19 17 16 17 17 17 17 14 15 16 17 16 15 13 11 7 6 6 5 3 9 12 15 12 9 6 4
17 15 13 11 11 11 10 9 7 7 9 10 12 15 17 18 19 18 19 19 18 16 14 15 17 18 16 14 13 10 8 8 8 7 6 6 6 8 14 14 11 7 3
18 17 15 14 12 11 10 9 6 7 7 9 11 13 15 17 18 19 20 18 16 16 14 14 16 16 13 12 13 12 10 9 6 3 1 2 4 7 8 10 7 5 6
20 17 15 14 12 9 8 7 5 6 6 8 9 11 13 15 16 18 19 18 15 14 15 15 15 15 16 17 15 10 5 8 14 14 12 9 7 5 9 7 4 1 5
20 17 15 12 10 10 12 9 8 6 6 9 10 11 12 13 15 16 16 16 13 13 15 16 12 15 21 17 17 24 25 22 19 18 18 18 17 15 13 10 10 9 10
18 16 15 11 9 9 10 10 12 10 11 10 10 11 12 12 12 13 14 15 14 17 17 17 14 15 24 12 14 23 31 31 28 23 18 17 17 17 16 13 12 15 14
18 17 14 10 9 7 9 11 11 12 9 9 9 11 12 12 12 13 14 16 17 19 20 21 14 15 26 18 4 9 19 28 33 29 18 13 13 12 11 13 12 12 14
18 17 15 11 10 8 6 8 7 9 9 8 8 9 11 11 12 13 15 16 17 19 22 25 21 13 19 29 8 3 3 8 18 30 29 15 11 10 9 11 12 12 13
20 18 16 12 11 9 6 9 11 8 8 10 10 10 11 12 14 15 15 15 17 17 22 24 24 22 16 25 31 9 3 2 4 12 26 28 12 9 9 9 10 10 11
20 18 15 13 11 9 7 8 8 10 11 9 8 10 12 14 15 17 17 17 17 18 20 24 25 26 30 25 18 21 22 15 3 4 17 22 22 15 12 10 8 8 9
21 19 16 14 11 10 9 11 11 11 10 9 8 10 14 14 13 14 13 16 16 18 17 19 23 25 26 28 28 19 22 18 16 8 2 9 14 17 14 8 9 14 15
22 21 19 17 14 10 10 11 10 12 11 11 11 12 12 13 12 13 14 14 15 15 16 17 19 20 21 21 22 23 23 11 9 7 3 3 5 12 11 17 12 16 19
Wind_Direction
133 133 124 112 107 106 102 101 99 95 88 82 78 77 78 76 72 71 68 65 62 65 65 65 63 61 59 60 60 55 50 54 62 68 47 36 74 141 143 145 163 145 147
144 141 132 121 114 111 105 110 106 100 99 97 88 78 73 69 64 62 61 59 53 53 52 50 51 49 45 35 33 28 16 3 352 351 15 83 303 157 180 171 178 178 167
140 137 129 125 125 122 120 119 114 108 99 91 84 74 65 59 58 55 53 50 47 41 35 32 23 13 5 1 353 351 345 338 328 329 317 302 225 230 226 208 199 189 183
142 139 133 127 124 122 118 115 111 107 101 92 82 72 61 55 43 37 26 17 15 8 356 347 338 330 326 326 326 326 326 324 324 328 319 322 240 220 245 240 218 206 200
149 146 138 134 128 119 117 115 111 105 98 89 79 60 40 35 32 34 28 19 12 1 349 336 327 323 319 319 320 319 319 321 319 317 320 316 278 263 264 229 224 218 207
151 147 141 135 130 125 122 118 113 108 102 92 75 67 56 46 44 38 27 20 9 357 340 337 330 323 317 313 311 309 311 312 313 317 319 312 279 272 242 217 215 217 212
149 144 134 131 126 122 119 116 113 108 97 84 67 57 45 29 29 23 20 20 15 9 1 344 339 341 332 320 312 305 301 302 307 312 313 318 329 321 252 216 213 212 215
144 140 134 128 123 122 120 116 112 107 93 73 61 58 59 19 4 6 356 357 2 3 1 356 351 348 346 345 341 330 318 305 298 301 300 308 325 333 267 192 206 207 216
139 134 132 129 129 125 123 119 112 105 92 70 63 62 63 62 60 18 331 333 338 348 349 350 348 349 336 334 336 332 324 311 294 295 292 274 288 272 159 175 195 211 229
134 135 136 139 136 131 126 118 110 103 82 64 48 29 17 35 43 36 28 30 18 10 14 17 18 9 16 12 2 359 347 309 292 286 283 253 243 184 195 218 222 232 240
133 138 150 146 145 136 124 119 125 102 71 48 30 15 13 19 19 17 14 18 11 11 1 350 348 348 353 358 356 3 357 332 307 289 280 262 232 246 274 255 249 253 242
136 139 169 167 154 144 155 146 138 109 57 35 36 31 17 17 19 13 6 8 4 359 354 347 341 338 337 336 338 343 353 354 343 281 275 274 268 265 269 271 248 244 249
135 123 127 160 166 159 145 150 136 110 53 27 26 28 25 22 18 9 4 3 358 358 351 345 343 348 343 337 330 329 333 337 347 351 280 263 267 265 266 279 266 252 248
133 124 120 130 136 132 129 131 128 95 45 37 34 25 18 17 11 9 4 2 359 0 354 351 354 351 344 338 330 323 327 331 331 336 326 259 250 255 253 265 262 261 265
131 129 126 130 132 131 132 113 95 76 60 47 32 24 18 16 15 10 9 6 3 357 359 2 1 355 350 341 333 326 330 355 336 307 297 306 251 245 252 252 258 252 249
138 130 127 123 117 115 109 107 96 90 62 39 34 35 27 25 22 15 7 7 9 10 7 359 359 355 352 345 338 342 354 349 346 331 301 287 281 272 236 235 251 243 232
130 124 120 119 121 121 103 93 75 60 52 48 46 37 31 26 22 15 4 357 360 3 360 356 357 358 5 351 334 334 331 335 1 52 14 257 252 240 222 223 239 223 242
128 120 116 113 109 104 110 98 82 88 69 60 49 41 37 26 18 12 5 0 354 359 4 2 9 20 12 360 1 348 326 82 81 78 79 77 79 114 157 153 158 298 290
125 122 112 105 98 94 96 107 108 110 74 71 63 48 34 22 18 16 14 14 16 20 16 12 16 19 11 14 45 79 82 82 78 76 71 71 75 80 90 91 95 79 82
134 136 129 120 103 95 101 105 109 104 90 75 52 34 28 28 33 29 23 30 32 27 23 19 21 31 24 19 78 64 69 62 65 66 73 70 67 73 79 88 91 81 77
138 133 124 123 99 109 123 105 110 92 77 52 34 30 33 41 42 33 40 47 47 44 42 35 29 32 27 31 53 60 67 60 57 55 60 64 75 68 81 88 89 87 85
136 127 121 113 97 90 111 130 111 99 70 47 41 50 49 47 45 49 54 54 54 50 43 38 37 43 40 39 29 7 14 27 47 45 46 50 59 86 101 93 97 88 80
149 138 132 122 105 92 105 127 127 99 83 69 71 65 58 57 61 56 55 53 50 57 57 52 49 52 46 51 54 51 29 1 344 35 35 41 66 72 68 93 101 86 67
158 145 141 134 118 95 101 114 107 101 94 77 69 64 68 73 64 62 61 60 62 73 63 58 56 60 59 51 53 63 63 59 33 351 19 32 44 59 63 76 87 66 50
159 158 151 145 124 110 103 98 105 106 101 94 84 81 84 76 64 56 62 65 69 67 64 63 57 56 59 59 55 51 51 49 46 57 350 350 33 49 52 54 62 43 20
168 163 158 151 137 122 117 112 114 116 105 99 87 84 77 71 59 73 67 71 66 67 67 63 59 54 53 64 66 66 67 63 44 39 30 326 339 8 39 39 41 19 7